JLY7606 SBKP-SBBR

Flight info

Callsign JLY7606
Flight time 1h 9m
Altitude 34000
Route ISMOB UZ26 AZOIC
Aircraft B738/M-SDE2E3FGHIRWXY/LB1

Departure

Time 2026-05-08 11:58
Airport Viracopos International Airport (SBKP)

Arrival

Time 2026-05-08 13:07
Airport Presidente Juscelino Kubitschek International Airport (SBBR)
Time Latitude Longitude Altitude Speed Heading
2026-05-08 11:37 -23.00426 -47.14821 2153 ft 0 kts 218°
2026-05-08 11:50 -23.00420 -47.14817 2151 ft 4 kts 221°
2026-05-08 11:50 -23.00405 -47.14796 2152 ft 4 kts 257°
2026-05-08 11:50 -23.00407 -47.14770 2152 ft 4 kts 304°
2026-05-08 11:50 -23.00413 -47.14761 2148 ft 1 kts 308°
2026-05-08 11:53 -23.00409 -47.14767 2156 ft 3 kts 308°
2026-05-08 11:53 -23.00382 -47.14804 2154 ft 9 kts 309°
2026-05-08 11:54 -23.00330 -47.14876 2154 ft 14 kts 306°
2026-05-08 11:54 -23.00276 -47.14955 2156 ft 10 kts 307°
2026-05-08 11:54 -23.00237 -47.15008 2155 ft 8 kts 315°
2026-05-08 11:54 -23.00183 -47.15010 2156 ft 8 kts 28°
2026-05-08 11:55 -23.00140 -47.14972 2153 ft 8 kts 39°
2026-05-08 11:55 -23.00097 -47.14935 2152 ft 8 kts 39°
2026-05-08 11:55 -23.00057 -47.14899 2152 ft 7 kts 38°
2026-05-08 11:55 -23.00020 -47.14862 2150 ft 7 kts 52°
2026-05-08 11:56 -22.99990 -47.14819 2156 ft 7 kts 52°
2026-05-08 11:56 -22.99954 -47.14785 2152 ft 7 kts 34°
2026-05-08 11:56 -22.99918 -47.14753 2152 ft 7 kts 46°
2026-05-08 11:56 -22.99892 -47.14712 2156 ft 7 kts 58°
2026-05-08 11:57 -22.99880 -47.14665 2156 ft 7 kts 97°
2026-05-08 11:57 -22.99935 -47.14575 2152 ft 36 kts 128°
2026-05-08 11:57 -23.00241 -47.14147 2154 ft 106 kts 128°
2026-05-08 11:57 -23.00817 -47.13335 2153 ft 163 kts 128°
2026-05-08 11:58 -23.01615 -47.12313 2519 ft 187 kts 126°
2026-05-08 11:58 -23.02494 -47.11176 3061 ft 205 kts 120°
2026-05-08 11:58 -23.02763 -47.09710 3634 ft 196 kts 67°
2026-05-08 11:59 -23.01692 -47.06800 4380 ft 235 kts 65°
2026-05-08 11:59 -23.01242 -47.05033 4795 ft 256 kts 68°
2026-05-08 11:59 -23.00791 -47.03089 5220 ft 272 kts 65°
2026-05-08 11:59 -22.99847 -47.01361 5927 ft 265 kts 39°
2026-05-08 12:00 -22.98445 -47.00069 6538 ft 273 kts 31°
2026-05-08 12:00 -22.96875 -46.98823 7236 ft 277 kts 30°
2026-05-08 12:00 -22.95332 -46.97596 7716 ft 278 kts 31°
2026-05-08 12:00 -22.93906 -46.96448 7954 ft 277 kts 31°
2026-05-08 12:01 -22.92360 -46.95210 7983 ft 276 kts 27°
2026-05-08 12:01 -22.90604 -46.94494 7993 ft 268 kts
2026-05-08 12:01 -22.88780 -46.94703 8283 ft 264 kts 340°
2026-05-08 12:01 -22.87100 -46.95522 9061 ft 265 kts 329°
2026-05-08 12:02 -22.85500 -46.96520 9946 ft 266 kts 328°
2026-05-08 12:02 -22.83878 -46.97560 10499 ft 279 kts 328°
2026-05-08 12:02 -22.82131 -46.98669 10659 ft 304 kts 328°
2026-05-08 12:02 -22.80232 -46.99854 10837 ft 326 kts 329°
2026-05-08 12:03 -22.78197 -47.01112 10995 ft 346 kts 329°
2026-05-08 12:03 -22.76063 -47.02422 11344 ft 358 kts 330°
2026-05-08 12:03 -22.73837 -47.03679 11836 ft 364 kts 333°
2026-05-08 12:03 -22.71556 -47.04901 12405 ft 367 kts 333°
2026-05-08 12:04 -22.69260 -47.06135 12962 ft 370 kts 333°
2026-05-08 12:04 -22.66945 -47.07395 13487 ft 374 kts 333°
2026-05-08 12:04 -22.64614 -47.08672 13972 ft 378 kts 333°
2026-05-08 12:04 -22.62255 -47.09966 14426 ft 381 kts 333°
2026-05-08 12:05 -22.59884 -47.11266 14904 ft 384 kts 333°
2026-05-08 12:05 -22.57492 -47.12578 15370 ft 387 kts 333°
2026-05-08 12:05 -22.55086 -47.13896 15808 ft 390 kts 333°
2026-05-08 12:05 -22.52652 -47.15229 16219 ft 394 kts 333°
2026-05-08 12:06 -22.50200 -47.16572 16667 ft 396 kts 333°
2026-05-08 12:06 -22.47732 -47.17923 17130 ft 399 kts 333°
2026-05-08 12:06 -22.45248 -47.19282 17604 ft 401 kts 333°
2026-05-08 12:06 -22.42754 -47.20646 18046 ft 403 kts 333°
2026-05-08 12:07 -22.40240 -47.22021 18429 ft 407 kts 333°
2026-05-08 12:07 -22.37706 -47.23406 18784 ft 409 kts 333°
2026-05-08 12:07 -22.35164 -47.24795 19178 ft 410 kts 333°
2026-05-08 12:07 -22.32614 -47.26187 19525 ft 413 kts 332°
2026-05-08 12:08 -22.30005 -47.27512 19865 ft 416 kts 340°
2026-05-08 12:08 -22.27150 -47.28090 20214 ft 422 kts 356°
2026-05-08 12:08 -22.24212 -47.27825 20575 ft 426 kts
2026-05-08 12:08 -22.21278 -47.27287 20947 ft 428 kts
2026-05-08 12:09 -22.18377 -47.26732 21267 ft 431 kts
2026-05-08 12:09 -22.15417 -47.26170 21564 ft 433 kts
2026-05-08 12:09 -22.12439 -47.25619 21872 ft 436 kts
2026-05-08 12:09 -22.09458 -47.25079 22175 ft 438 kts
2026-05-08 12:10 -22.06448 -47.24543 22482 ft 440 kts
2026-05-08 12:10 -22.03417 -47.24008 22774 ft 442 kts
2026-05-08 12:10 -22.00374 -47.23474 23067 ft 444 kts
2026-05-08 12:10 -21.97318 -47.22937 23363 ft 446 kts
2026-05-08 12:11 -21.94244 -47.22397 23658 ft 448 kts
2026-05-08 12:11 -21.91168 -47.21856 23897 ft 449 kts
2026-05-08 12:11 -21.88071 -47.21312 24109 ft 452 kts
2026-05-08 12:11 -21.84965 -47.20766 24317 ft 454 kts
2026-05-08 12:12 -21.81833 -47.20217 24485 ft 457 kts
2026-05-08 12:12 -21.78683 -47.19736 24679 ft 457 kts 360°
2026-05-08 12:12 -21.75532 -47.19971 24908 ft 453 kts 349°
2026-05-08 12:12 -21.72408 -47.20442 25149 ft 454 kts 349°
2026-05-08 12:13 -21.69271 -47.20907 25349 ft 456 kts 349°
2026-05-08 12:13 -21.67188 -47.21205 25481 ft 457 kts 349°
2026-05-08 12:13 -21.63982 -47.21648 25685 ft 459 kts 349°
2026-05-08 12:13 -21.60845 -47.22067 25898 ft 461 kts 350°
2026-05-08 12:14 -21.57656 -47.22484 26082 ft 463 kts 350°
2026-05-08 12:14 -21.54457 -47.22899 26271 ft 464 kts 350°
2026-05-08 12:14 -21.51247 -47.23316 26470 ft 466 kts 350°
2026-05-08 12:14 -21.48025 -47.23735 26657 ft 467 kts 350°
2026-05-08 12:15 -21.44795 -47.24155 26842 ft 469 kts 349°
2026-05-08 12:15 -21.41555 -47.24577 27030 ft 470 kts 349°
2026-05-08 12:15 -21.38299 -47.25001 27208 ft 472 kts 349°
2026-05-08 12:15 -21.35037 -47.25429 27355 ft 474 kts 349°
2026-05-08 12:16 -21.31769 -47.25927 27529 ft 475 kts 348°
2026-05-08 12:16 -21.28505 -47.26481 27740 ft 475 kts 347°
2026-05-08 12:16 -21.25245 -47.27054 28007 ft 474 kts 347°
2026-05-08 12:16 -21.21994 -47.27625 28295 ft 473 kts 347°
2026-05-08 12:17 -21.18746 -47.28189 28583 ft 473 kts 347°
2026-05-08 12:17 -21.15499 -47.28744 28839 ft 473 kts 347°
2026-05-08 12:17 -21.12248 -47.29295 29089 ft 473 kts 347°
2026-05-08 12:17 -21.08989 -47.29843 29342 ft 474 kts 347°
2026-05-08 12:18 -21.05735 -47.30388 29659 ft 473 kts 347°
2026-05-08 12:18 -21.02491 -47.30930 29973 ft 472 kts 347°
2026-05-08 12:18 -20.99248 -47.31473 30235 ft 472 kts 347°
2026-05-08 12:18 -20.96005 -47.32016 30488 ft 471 kts 347°
2026-05-08 12:19 -20.92765 -47.32558 30767 ft 470 kts 347°
2026-05-08 12:19 -20.89534 -47.33098 31035 ft 470 kts 347°
2026-05-08 12:19 -20.86307 -47.33638 31278 ft 470 kts 347°
2026-05-08 12:19 -20.83077 -47.34179 31547 ft 470 kts 347°
2026-05-08 12:20 -20.79853 -47.34718 31851 ft 468 kts 347°
2026-05-08 12:20 -20.76635 -47.35256 32148 ft 467 kts 347°
2026-05-08 12:20 -20.73426 -47.35792 32412 ft 467 kts 347°
2026-05-08 12:20 -20.70211 -47.36329 32677 ft 467 kts 347°
2026-05-08 12:21 -20.67004 -47.36864 32938 ft 466 kts 347°
2026-05-08 12:21 -20.63798 -47.37400 33162 ft 467 kts 347°
2026-05-08 12:21 -20.60580 -47.37936 33386 ft 467 kts 347°
2026-05-08 12:21 -20.57377 -47.38467 33700 ft 466 kts 348°
2026-05-08 12:22 -20.54172 -47.38969 34017 ft 464 kts 348°
2026-05-08 12:22 -20.51019 -47.39443 34078 ft 466 kts 348°
2026-05-08 12:22 -20.44603 -47.40392 34079 ft 464 kts 348°
2026-05-08 12:23 -20.38213 -47.41344 34099 ft 463 kts 348°
2026-05-08 12:23 -20.31826 -47.42305 34100 ft 463 kts 348°
2026-05-08 12:24 -20.25441 -47.43266 34101 ft 464 kts 348°
2026-05-08 12:24 -20.19049 -47.44228 34086 ft 464 kts 348°
2026-05-08 12:25 -20.12655 -47.45189 34107 ft 464 kts 348°
2026-05-08 12:25 -20.06294 -47.46143 34107 ft 465 kts 348°
2026-05-08 12:26 -19.99887 -47.47105 34087 ft 465 kts 348°
2026-05-08 12:26 -19.93484 -47.48066 34104 ft 465 kts 348°
2026-05-08 12:27 -19.87071 -47.49024 34114 ft 467 kts 348°
2026-05-08 12:27 -19.80625 -47.49989 34110 ft 468 kts 348°
2026-05-08 12:28 -19.74171 -47.50953 34120 ft 469 kts 348°
2026-05-08 12:28 -19.67699 -47.51903 34126 ft 470 kts 349°
2026-05-08 12:29 -19.61262 -47.52841 34129 ft 470 kts 349°
2026-05-08 12:29 -19.54772 -47.53788 34126 ft 470 kts 349°
2026-05-08 12:30 -19.48283 -47.54735 34128 ft 470 kts 349°
2026-05-08 12:30 -19.41793 -47.55683 34129 ft 471 kts 349°
2026-05-08 12:31 -19.35301 -47.56630 34132 ft 471 kts 349°
2026-05-08 12:31 -19.28809 -47.57576 34126 ft 471 kts 349°
2026-05-08 12:32 -19.22320 -47.58520 34130 ft 470 kts 349°
2026-05-08 12:32 -19.15835 -47.59463 34140 ft 470 kts 349°
2026-05-08 12:33 -19.09357 -47.60406 34125 ft 470 kts 349°
2026-05-08 12:33 -19.02893 -47.61344 34131 ft 469 kts 349°
2026-05-08 12:34 -18.96432 -47.62250 34124 ft 468 kts 349°
2026-05-08 12:34 -18.89973 -47.63138 34131 ft 467 kts 349°
2026-05-08 12:35 -18.83520 -47.64029 34126 ft 467 kts 349°
2026-05-08 12:35 -18.77117 -47.64915 34126 ft 467 kts 349°
2026-05-08 12:36 -18.70659 -47.65809 34130 ft 468 kts 349°
2026-05-08 12:36 -18.64197 -47.66703 34125 ft 469 kts 349°
2026-05-08 12:37 -18.57719 -47.67608 34129 ft 470 kts 349°
2026-05-08 12:37 -18.51242 -47.68556 34112 ft 470 kts 349°
2026-05-08 12:38 -18.44754 -47.69510 34123 ft 471 kts 349°
2026-05-08 12:38 -18.38249 -47.70458 34124 ft 472 kts 349°
2026-05-08 12:39 -18.31732 -47.71406 34123 ft 473 kts 349°
2026-05-08 12:39 -18.25265 -47.72636 34119 ft 472 kts 344°
2026-05-08 12:40 -18.18883 -47.74270 34117 ft 472 kts 343°
2026-05-08 12:40 -18.12506 -47.75913 34123 ft 472 kts 343°
2026-05-08 12:41 -18.06111 -47.77496 34124 ft 472 kts 344°
2026-05-08 12:41 -17.99701 -47.79051 34118 ft 473 kts 344°
2026-05-08 12:42 -17.93295 -47.80597 34128 ft 472 kts 344°
2026-05-08 12:42 -17.86889 -47.82143 34121 ft 472 kts 344°
2026-05-08 12:43 -17.80527 -47.83680 34116 ft 472 kts 344°
2026-05-08 12:43 -17.74139 -47.85223 34117 ft 471 kts 344°
2026-05-08 12:44 -17.67752 -47.86764 34124 ft 470 kts 344°
2026-05-08 12:44 -17.61378 -47.88302 34130 ft 470 kts 344°
2026-05-08 12:45 -17.55003 -47.89838 34117 ft 470 kts 344°
2026-05-08 12:45 -17.48589 -47.91384 33425 ft 477 kts 344°
2026-05-08 12:46 -17.45364 -47.92160 32776 ft 475 kts 345°
2026-05-08 12:46 -17.42139 -47.92936 32058 ft 475 kts 345°
2026-05-08 12:46 -17.38921 -47.93709 31325 ft 476 kts 345°
2026-05-08 12:46 -17.35690 -47.94486 30560 ft 477 kts 345°
2026-05-08 12:47 -17.32443 -47.95266 29677 ft 479 kts 345°
2026-05-08 12:47 -17.29196 -47.96046 28769 ft 480 kts 346°
2026-05-08 12:47 -17.25934 -47.96829 27871 ft 480 kts 346°
2026-05-08 12:47 -17.22674 -47.97612 26983 ft 481 kts 346°
2026-05-08 12:48 -17.19422 -47.98392 26361 ft 476 kts 346°
2026-05-08 12:48 -17.16213 -47.99161 25719 ft 471 kts 346°
2026-05-08 12:48 -17.13068 -47.99915 25079 ft 467 kts 346°
2026-05-08 12:48 -17.09870 -48.00682 24431 ft 464 kts 346°
2026-05-08 12:49 -17.06740 -48.01432 23787 ft 461 kts 347°
2026-05-08 12:49 -17.03623 -48.02179 23065 ft 457 kts 347°
2026-05-08 12:49 -17.00580 -48.02908 22409 ft 452 kts 346°
2026-05-08 12:49 -16.97530 -48.03638 21768 ft 448 kts 346°
2026-05-08 12:50 -16.94510 -48.04361 21143 ft 443 kts 347°
2026-05-08 12:50 -16.91519 -48.05076 20537 ft 439 kts 347°
2026-05-08 12:50 -16.88558 -48.05785 19922 ft 435 kts 347°
2026-05-08 12:50 -16.85614 -48.06489 19292 ft 432 kts 347°
2026-05-08 12:51 -16.82696 -48.07186 18681 ft 429 kts 347°
2026-05-08 12:51 -16.76910 -48.08568 17359 ft 423 kts 347°
2026-05-08 12:51 -16.74052 -48.09228 16725 ft 419 kts 348°
2026-05-08 12:52 -16.71219 -48.09868 16125 ft 415 kts 348°
2026-05-08 12:52 -16.65621 -48.11124 14935 ft 408 kts 348°
2026-05-08 12:52 -16.62861 -48.11745 14342 ft 405 kts 348°
2026-05-08 12:53 -16.60116 -48.12364 13723 ft 402 kts 348°
2026-05-08 12:53 -16.57397 -48.12977 13100 ft 398 kts 348°
2026-05-08 12:53 -16.54702 -48.13586 12520 ft 394 kts 348°
2026-05-08 12:53 -16.52045 -48.14186 11968 ft 388 kts 347°
2026-05-08 12:54 -16.49419 -48.14780 11429 ft 384 kts 347°
2026-05-08 12:54 -16.46857 -48.15359 11270 ft 369 kts 347°
2026-05-08 12:54 -16.44391 -48.15914 11106 ft 355 kts 347°
2026-05-08 12:54 -16.42016 -48.16449 10953 ft 343 kts 347°
2026-05-08 12:55 -16.39724 -48.16968 10822 ft 331 kts 347°
2026-05-08 12:55 -16.37510 -48.17468 10672 ft 321 kts 347°
2026-05-08 12:55 -16.35360 -48.17954 10543 ft 311 kts 346°
2026-05-08 12:55 -16.33275 -48.18425 10404 ft 302 kts 347°
2026-05-08 12:56 -16.31251 -48.18881 10289 ft 293 kts 347°
2026-05-08 12:56 -16.29283 -48.19325 10173 ft 286 kts 347°
2026-05-08 12:56 -16.27369 -48.19756 10063 ft 277 kts 346°
2026-05-08 12:56 -16.25480 -48.20180 9752 ft 277 kts 347°
2026-05-08 12:57 -16.23598 -48.20604 9505 ft 276 kts 347°
2026-05-08 12:57 -16.21727 -48.21024 9249 ft 274 kts 347°
2026-05-08 12:57 -16.19874 -48.21439 8987 ft 271 kts 347°
2026-05-08 12:57 -16.18039 -48.21850 8764 ft 268 kts 347°
2026-05-08 12:58 -16.16251 -48.22249 8538 ft 265 kts 348°
2026-05-08 12:58 -16.14428 -48.22254 8297 ft 262 kts 11°
2026-05-08 12:58 -16.12669 -48.21805 8087 ft 259 kts 13°
2026-05-08 12:58 -16.10928 -48.21351 7860 ft 257 kts 14°
2026-05-08 12:59 -16.09197 -48.20900 7634 ft 256 kts 14°
2026-05-08 12:59 -16.07463 -48.20451 7280 ft 260 kts 13°
2026-05-08 12:59 -16.05714 -48.20000 7013 ft 259 kts 14°
2026-05-08 12:59 -16.03968 -48.19550 6764 ft 256 kts 14°
2026-05-08 13:00 -16.02257 -48.19110 6535 ft 251 kts 14°
2026-05-08 13:00 -16.00581 -48.18680 6277 ft 244 kts 15°
2026-05-08 13:00 -15.98962 -48.18299 6105 ft 234 kts
2026-05-08 13:00 -15.97348 -48.18302 5932 ft 229 kts 356°
2026-05-08 13:01 -15.95783 -48.18481 5696 ft 224 kts 358°
2026-05-08 13:01 -15.94274 -48.18471 5494 ft 212 kts 18°
2026-05-08 13:01 -15.93396 -48.18061 5507 ft 200 kts 36°
2026-05-08 13:01 -15.92527 -48.17014 5469 ft 187 kts 58°
2026-05-08 13:02 -15.91854 -48.15831 5443 ft 196 kts 58°
2026-05-08 13:02 -15.91143 -48.14625 5439 ft 196 kts 58°
2026-05-08 13:02 -15.90435 -48.13428 5464 ft 193 kts 58°
2026-05-08 13:02 -15.89743 -48.12236 5451 ft 191 kts 58°
2026-05-08 13:03 -15.89165 -48.11015 5438 ft 188 kts 78°
2026-05-08 13:03 -15.89120 -48.09656 5415 ft 190 kts 86°
2026-05-08 13:03 -15.89012 -48.08274 5349 ft 193 kts 83°
2026-05-08 13:03 -15.88901 -48.06896 5315 ft 189 kts 82°
2026-05-08 13:04 -15.88810 -48.05550 5225 ft 184 kts 84°
2026-05-08 13:04 -15.88727 -48.04247 5139 ft 178 kts 84°
2026-05-08 13:04 -15.88642 -48.02967 5082 ft 176 kts 83°
2026-05-08 13:04 -15.88563 -48.01718 5022 ft 173 kts 83°
2026-05-08 13:05 -15.88485 -48.00504 4768 ft 161 kts 84°
2026-05-08 13:05 -15.88416 -47.99424 4595 ft 137 kts 83°
2026-05-08 13:05 -15.88351 -47.98439 4385 ft 135 kts 84°
2026-05-08 13:05 -15.88286 -47.97445 4242 ft 142 kts 85°
2026-05-08 13:06 -15.88221 -47.96407 4026 ft 145 kts 85°
2026-05-08 13:06 -15.88154 -47.95380 3858 ft 141 kts 84°
2026-05-08 13:06 -15.88091 -47.94381 3610 ft 134 kts 87°
2026-05-08 13:06 -15.88035 -47.93491 3478 ft 114 kts 85°
2026-05-08 13:07 -15.87991 -47.92821 3472 ft 76 kts 86°
2026-05-08 13:07 -15.87958 -47.92312 3475 ft 66 kts 86°
2026-05-08 13:07 -15.87921 -47.91901 3472 ft 39 kts 70°
2026-05-08 13:07 -15.87794 -47.91675 3469 ft 33 kts 54°
2026-05-08 13:08 -15.87691 -47.91558 3469 ft 14 kts 18°
2026-05-08 13:08 -15.87590 -47.91556 3469 ft 15 kts 358°
2026-05-08 13:08 -15.87481 -47.91568 3469 ft 19 kts 356°
2026-05-08 13:08 -15.87345 -47.91575 3469 ft 10 kts 352°
2026-05-08 13:09 -15.87313 -47.91628 3469 ft 10 kts 273°
2026-05-08 13:09 -15.87315 -47.91700 3469 ft 10 kts 268°
2026-05-08 13:09 -15.87318 -47.91761 3469 ft 6 kts 266°
2026-05-08 13:09 -15.87322 -47.91806 3469 ft 6 kts 262°
2026-05-08 13:10 -15.87312 -47.91838 3468 ft 4 kts 324°
2026-05-08 13:10 -15.87284 -47.91846 3469 ft 4 kts 352°
2026-05-08 13:10 -15.87267 -47.91847 3469 ft 2 kts 356°
2026-05-08 13:10 -15.87260 -47.91848 3469 ft 0 kts 357°
2026-05-08 13:11 -15.87261 -47.91848 3469 ft 0 kts 357°